Date String (YYYY-MM-DD hh:mm:ss) UTC,Instrument flags,Ambient pressure (hPa),Sample flow (lpm),Bypass flow (lpm),Sample temperature (°C),Ambient temperature (°C),ASC tube jacket temperature (°C),LED temperature (°C),Box temperature (°C),Sample RH (%),Span deviation,Mass concentration (μg/m³),Mass concentration (μg/m³),Mass concentration (μg/m³)
DateTimeUTC,F1_M11,P_M11,Q1_M11,Q2_M11,T1_M11,T2_M11,T3_M11,T4_M11,T5_M11,U1_M11,ZSPAN_M11,X2_M11,X0_M11,X1_M11
2023-03-04 04:00:00,,0817.0,4.99,0.00,22.3,20.7,00.0,31.1,24.0,17.3,-001.7,0006.32,0010.07,0005.85
2023-03-04 04:01:00,,0816.8,5.00,0.00,22.3,20.7,00.0,31.1,24.0,15.7,-001.8,0006.17,0010.11,0005.72
2023-03-04 04:02:00,,0816.8,5.00,0.00,22.3,20.6,00.0,31.1,24.0,15.3,-001.9,0005.97,0010.24,0005.55
2023-03-04 04:03:00,,0816.8,4.98,0.00,22.3,20.6,00.0,31.1,24.0,16.0,-002.0,0005.95,0010.57,0005.53
2023-03-04 04:04:00,,0816.9,5.01,0.00,22.3,20.6,00.0,31.1,24.0,15.5,-002.4,0005.96,0010.66,0005.57
2023-03-04 04:05:00,,0817.1,5.00,0.00,22.3,20.6,00.0,31.1,24.0,14.9,-002.6,0005.93,0010.51,0005.57
2023-03-04 04:06:00,,0816.8,5.01,0.00,22.3,20.6,00.0,31.1,24.0,13.8,-002.7,0005.81,0010.32,0005.45
2023-03-04 04:07:00,,0816.6,4.99,0.00,22.3,20.6,00.0,31.1,23.9,13.1,-002.6,0005.83,0010.32,0005.46
2023-03-04 04:08:00,,0816.7,4.99,0.00,22.2,20.6,00.0,31.1,23.9,13.2,-002.8,0005.91,0010.35,0005.53
2023-03-04 04:09:00,,0816.9,5.01,0.00,22.2,20.6,00.0,31.0,23.9,13.0,-002.6,0005.81,0010.32,0005.43
2023-03-04 04:10:00,,0817.0,4.98,0.00,22.2,20.6,00.0,31.0,23.9,13.9,-002.7,0005.61,0010.45,0005.22
2023-03-04 04:11:00,,0817.0,5.01,0.00,22.2,20.6,00.0,31.0,23.9,15.4,-002.3,0005.54,0010.43,0005.15
2023-03-04 04:12:00,,0816.7,5.01,0.00,22.2,20.6,00.0,31.0,23.9,16.0,-001.7,0005.58,0010.49,0005.18
2023-03-04 04:13:00,,0816.7,5.00,0.00,22.2,20.5,00.0,31.0,23.9,16.5,-001.6,0005.73,0010.41,0005.31
2023-03-04 04:14:00,,0816.9,5.02,0.00,22.2,20.6,00.0,31.0,23.9,16.7,-001.3,0005.78,0010.36,0005.34
2023-03-04 04:15:00,,0816.9,4.98,0.00,22.2,21.3,00.0,31.0,24.1,17.0,-001.2,0005.91,0010.32,0005.43
2023-03-04 04:16:00,,0817.0,4.98,0.00,22.3,22.4,00.0,31.0,24.3,17.2,-001.3,0006.08,0010.50,0005.58
2023-03-04 04:17:00,,0817.0,5.02,0.00,22.5,23.0,00.0,31.0,24.5,17.2,-001.3,0006.30,0010.69,0005.82
2023-03-04 04:18:00,,0817.0,4.97,0.00,22.5,22.5,00.0,31.1,24.4,17.1,-001.4,0006.52,0010.90,0006.05
2023-03-04 04:19:00,,0817.0,4.99,0.00,22.5,22.1,00.0,31.1,24.3,17.1,-001.2,0006.74,0011.06,0006.28
2023-03-04 04:20:00,,0817.1,4.99,0.00,22.5,21.8,00.0,31.1,24.3,17.1,-001.3,0006.97,0011.44,0006.50
2023-03-04 04:21:00,,0817.0,4.99,0.00,22.5,21.6,00.0,31.1,24.2,17.0,-000.9,0007.18,0011.84,0006.69
2023-03-04 04:22:00,,0817.0,4.99,0.00,22.5,21.4,00.0,31.1,24.2,17.2,-000.9,0007.27,0011.93,0006.77
2023-03-04 04:23:00,,0817.1,4.99,0.00,22.4,21.2,00.0,31.1,24.2,17.3,-001.1,0007.32,0011.79,0006.84
2023-03-04 04:24:00,,0817.0,5.00,0.00,22.4,21.1,00.0,31.1,24.2,17.3,-001.3,0007.39,0011.73,0006.90
2023-03-04 04:25:00,,0817.1,5.02,0.00,22.4,21.0,00.0,31.1,24.1,17.4,-001.3,0007.44,0011.84,0006.96
2023-03-04 04:26:00,,0817.0,5.00,0.00,22.4,20.9,00.0,31.1,24.1,17.3,-001.4,0007.46,0012.22,0006.99
2023-03-04 04:27:00,,0817.1,5.00,0.00,22.4,20.8,00.0,31.1,24.0,17.3,-001.3,0007.46,0012.37,0007.01
2023-03-04 04:28:00,,0817.0,5.00,0.00,22.4,20.6,00.0,31.1,24.0,17.4,-001.4,0007.45,0012.61,0007.01
2023-03-04 04:29:00,,0817.0,5.00,0.00,22.3,20.5,00.0,31.1,23.9,17.4,-001.5,0007.47,0012.64,0007.01
2023-03-04 04:30:00,,0817.0,5.00,0.00,22.3,20.3,00.0,31.1,23.9,17.4,-001.7,0007.53,0012.73,0007.03
2023-03-04 04:31:00,,0816.9,5.00,0.00,22.2,20.2,00.0,31.1,23.7,17.5,-001.8,0007.55,0012.70,0007.05
2023-03-04 04:32:00,,0816.9,4.99,0.00,22.2,20.1,00.0,31.1,23.7,17.6,-002.0,0007.55,0012.17,0007.06
2023-03-04 04:33:00,,0816.9,5.00,0.00,22.1,20.0,00.0,31.0,23.6,17.7,-002.0,0007.59,0012.16,0007.07
2023-03-04 04:34:00,,0816.9,5.01,0.00,22.1,20.2,00.0,31.0,23.7,17.8,-002.0,0007.59,0012.09,0007.10
2023-03-04 04:35:00,,0816.9,5.01,0.00,22.2,21.2,00.0,31.0,23.9,17.8,-002.0,0007.61,0012.66,0007.13
2023-03-04 04:36:00,,0817.0,5.01,0.00,22.3,22.4,00.0,31.0,24.2,17.9,-002.1,0007.62,0013.72,0007.16
2023-03-04 04:37:00,,0817.0,4.99,0.00,22.4,22.6,00.0,31.0,24.3,17.9,-002.0,0007.65,0013.16,0007.20
2023-03-04 04:38:00,,0817.0,4.99,0.00,22.4,22.1,00.0,31.0,24.2,17.9,-001.9,0007.68,0013.08,0007.24
2023-03-04 04:39:00,,0817.0,5.01,0.00,22.4,21.6,00.0,31.1,24.1,17.8,-001.9,0007.73,0012.75,0007.28
2023-03-04 04:40:00,,0817.0,5.00,0.00,22.3,21.2,00.0,31.1,24.0,17.9,-001.9,0007.80,0013.41,0007.33
2023-03-04 04:41:00,,0817.1,5.02,0.00,22.3,20.9,00.0,31.1,23.9,18.0,-001.9,0007.87,0013.64,0007.39
2023-03-04 04:42:00,,0817.1,4.99,0.00,22.3,20.7,00.0,31.1,23.9,18.1,-001.7,0007.92,0013.68,0007.45
2023-03-04 04:43:00,,0817.1,4.99,0.00,22.2,20.5,00.0,31.1,23.8,18.2,-001.6,0008.00,0013.80,0007.54
2023-03-04 04:44:00,,0817.0,5.00,0.00,22.2,20.4,00.0,31.0,23.8,18.5,-001.6,0008.05,0014.16,0007.61
2023-03-04 04:45:00,,0817.0,5.02,0.00,22.2,20.3,00.0,31.0,23.8,19.3,-001.6,0008.19,0014.41,0007.71
2023-03-04 04:46:00,,0817.0,5.00,0.00,22.2,20.3,00.0,31.0,23.8,18.8,-001.5,0008.30,0014.13,0007.80
2023-03-04 04:47:00,,0817.0,5.00,0.00,22.2,20.4,00.0,31.0,23.8,18.6,-001.4,0008.38,0012.89,0007.88
2023-03-04 04:48:00,,0817.0,4.99,0.00,22.1,20.4,00.0,31.0,23.8,18.5,-001.2,0008.47,0012.94,0007.96
2023-03-04 04:49:00,,0817.1,5.00,0.00,22.1,20.4,00.0,31.0,23.8,18.6,-001.3,0008.55,0012.97,0008.02
2023-03-04 04:50:00,,0817.1,4.97,0.00,22.1,20.4,00.0,31.0,23.8,18.6,-001.2,0008.61,0013.00,0008.09
2023-03-04 04:51:00,,0817.1,5.01,0.00,22.1,20.3,00.0,31.0,23.8,18.6,-001.3,0008.67,0012.46,0008.15
2023-03-04 04:52:00,,0817.1,5.00,0.00,22.1,20.3,00.0,30.9,23.8,18.5,-001.3,0008.71,0012.40,0008.22
2023-03-04 04:53:00,,0817.2,5.01,0.00,22.1,20.3,00.0,30.9,23.7,18.4,-001.3,0008.79,0012.69,0008.31
2023-03-04 04:54:00,,0817.4,5.01,0.00,22.1,20.3,00.0,30.9,23.7,18.5,-001.4,0008.86,0012.68,0008.36
2023-03-04 04:55:00,,0817.5,5.00,0.00,22.0,20.3,00.0,30.9,23.7,18.5,-001.4,0008.88,0012.26,0008.41
2023-03-04 04:56:00,,0817.5,5.01,0.00,22.0,20.3,00.0,30.9,23.7,18.2,-001.4,0008.86,0012.17,0008.42
2023-03-04 04:57:00,,0817.5,5.00,0.00,22.0,20.3,00.0,30.9,23.8,18.1,-001.5,0008.83,0012.20,0008.40
2023-03-04 04:58:00,,0817.5,4.99,0.00,22.0,20.4,00.0,30.9,23.8,18.1,-001.7,0008.84,0012.26,0008.38
2023-03-04 04:59:00,,0817.5,4.98,0.00,22.1,21.5,00.0,30.8,24.0,18.0,-001.7,0008.84,0012.26,0008.37
